This is the latest recevied weather packets stored in our database for station/object OK1FET-5. If no packets are shown the sender has not sent any weather packets the latest 1 day(s).
| Time | Temp. | Humidity | Pressure | Rain* | Wind** | Luminosity | Snow |
|---|---|---|---|---|---|---|---|
| 1778000498 | 22.78° C | 39% | 1005.1 hPa | - | 0.89 m/s, 68° | - | - |
| 1778000203 | 23.33° C | 38% | 1005.1 hPa | - | 1.34 m/s, 8° | - | - |
| 1777999907 | 23.33° C | 38% | 1005.1 hPa | - | 1.34 m/s, 231° | - | - |
| 1777999613 | 23.33° C | 38% | 1005.1 hPa | - | 1.34 m/s, 175° | - | - |
| 1777999317 | 23.33° C | 38% | 1005 hPa | - | 1.34 m/s, 98° | - | - |
| 1777999021 | 23.89° C | 38% | 1005 hPa | - | 1.34 m/s, 92° | - | - |
| 1777998726 | 23.89° C | 37% | 1005 hPa | - | 1.34 m/s, 121° | - | - |
| 1777998430 | 24.44° C | 37% | 1004.9 hPa | - | 1.79 m/s, 138° | - | - |
| 1777998135 | 24.44° C | 37% | 1004.8 hPa | - | 1.34 m/s, 204° | - | - |
| 1777997840 | 25° C | 37% | 1004.9 hPa | - | 1.34 m/s, 164° | - | - |
| 1777997248 | 25° C | 37% | 1005 hPa | - | 1.34 m/s, 98° | - | - |
| 1777996657 | 25° C | 36% | 1005.1 hPa | - | 0.89 m/s, 186° | - | - |
| 1777996361 | 25.56° C | 36% | 1005.2 hPa | - | 0.89 m/s, 307° | - | - |
| 1777996066 | 25.56° C | 36% | 1005.2 hPa | - | 1.34 m/s, 61° | - | - |
| 1777995475 | 25.56° C | 35% | 1005.2 hPa | - | 1.34 m/s, 99° | - | - |
| 1777995179 | 26.11° C | 35% | 1005.2 hPa | - | 1.79 m/s, 127° | - | - |
| 1777994884 | 26.11° C | 35% | 1005.4 hPa | - | 0.89 m/s, 78° | - | - |
| 1777994588 | 26.11° C | 35% | 1005.4 hPa | - | 1.34 m/s, 57° | - | - |
| 1777994292 | 25.56° C | 35% | 1005.6 hPa | - | 1.34 m/s, 29° | - | - |
| 1777993997 | 25° C | 34% | 1005.5 hPa | - | 1.34 m/s, 173° | - | - |
| 1777993701 | 25° C | 35% | 1005.5 hPa | - | 1.34 m/s, 193° | - | - |
| 1777993406 | 25° C | 34% | 1005.6 hPa | - | 1.34 m/s, 172° | - | - |
| 1777993111 | 25.56° C | 33% | 1005.6 hPa | - | 0.89 m/s, 232° | - | - |
| 1777992815 | 25.56° C | 33% | 1005.6 hPa | - | 1.34 m/s, 91° | - | - |
| 1777992519 | 25.56° C | 33% | 1005.6 hPa | - | 1.79 m/s, 125° | - | - |
* Rain since midnight (hover to see other rain measurements)
** Current wind speed in m/s (hover to see current wind gust speed)